timestamp,wind_dir_avg,wind_spd_avg,wind_spd_max_dir,wind_spd_gust,battery_voltage,lat,long
2022-06-04 00:04:00+00:00,10.0,6.58,33.0,8.67,12.73,47.59359,-54.27349
2022-06-04 00:14:01+00:00,0.0,7.38,1.0,7.89,12.41,47.59359,-54.27349
2022-06-04 00:24:01+00:00,34.0,7.56,36.0,8.78,12.41,47.59359,-54.27349
2022-06-04 00:34:01+00:00,6.0,5.69,40.0,7.02,12.41,47.59359,-54.27349
2022-06-04 00:44:01+00:00,357.0,7.71,355.0,9.34,12.41,47.59359,-54.27349
2022-06-04 00:54:01+00:00,13.0,9.41,28.0,11.17,12.41,47.59359,-54.27349
2022-06-04 01:04:01+00:00,18.0,8.79,30.0,11.38,12.41,47.59359,-54.27349
2022-06-04 01:14:00+00:00,347.0,7.17,327.0,10.63,12.41,47.59359,-54.27349
2022-06-04 01:24:00+00:00,3.0,6.66,20.0,7.44,12.41,47.59359,-54.27349
2022-06-04 01:34:00+00:00,15.0,6.55,37.0,8.84,12.41,47.59359,-54.27349
2022-06-04 01:44:00+00:00,15.0,6.43,38.0,8.34,12.41,47.59359,-54.27349
2022-06-04 01:54:00+00:00,16.0,8.16,30.0,9.83,12.41,47.59359,-54.27349
2022-06-04 02:04:00+00:00,359.0,7.84,358.0,8.86,12.41,47.59359,-54.27349
2022-06-04 02:14:00+00:00,0.0,8.05,30.0,9.86,12.41,47.59359,-54.27349
2022-06-04 02:24:00+00:00,23.0,11.78,26.0,12.34,12.41,47.59359,-54.27349
2022-06-04 02:34:00+00:00,315.0,0.01,27.0,0.0,12.41,47.59359,-54.27349
2022-06-04 02:44:00+00:00,38.0,7.08,40.0,8.61,12.41,47.59359,-54.27349
2022-06-04 02:54:00+00:00,48.0,7.51,45.0,8.36,12.41,47.59359,-54.27349
2022-06-04 03:04:00+00:00,48.0,7.54,41.0,8.31,12.41,47.59359,-54.27349
2022-06-04 03:14:00+00:00,55.0,6.63,56.0,7.69,12.25,47.59359,-54.27349
2022-06-04 03:24:00+00:00,45.0,5.34,49.0,6.65,12.25,47.59359,-54.27349
2022-06-04 03:34:00+00:00,13.0,3.31,33.0,3.88,12.25,47.59359,-54.27349
2022-06-04 03:44:00+00:00,25.0,3.66,58.0,5.93,12.25,47.59359,-54.27349
2022-06-04 03:54:00+00:00,5.0,3.74,3.0,4.35,12.25,47.59359,-54.27349
2022-06-04 04:04:00+00:00,2.0,3.74,3.0,4.06,12.25,47.59359,-54.27349
2022-06-04 04:14:01+00:00,5.0,2.34,1.0,2.6,12.33,47.59359,-54.27349
2022-06-04 04:24:01+00:00,358.0,1.37,355.0,1.59,12.33,47.59359,-54.27349
2022-06-04 04:34:01+00:00,353.0,0.84,352.0,0.95,12.33,47.59359,-54.27349
2022-06-04 04:44:01+00:00,310.0,0.67,315.0,0.78,12.33,47.59359,-54.27349
2022-06-04 04:54:01+00:00,277.0,6.54,277.0,6.84,12.33,47.59359,-54.27349
2022-06-04 05:04:01+00:00,290.0,4.0,285.0,6.64,12.33,47.59359,-54.27349
2022-06-04 05:14:00+00:00,294.0,3.69,287.0,5.15,12.33,47.59359,-54.27349
2022-06-04 05:24:00+00:00,294.0,5.72,290.0,7.03,12.33,47.59359,-54.27349
2022-06-04 05:34:00+00:00,291.0,6.33,291.0,6.89,12.33,47.59359,-54.27349
2022-06-04 05:44:00+00:00,306.0,5.4,295.0,7.12,12.33,47.59359,-54.27349
2022-06-04 05:54:00+00:00,305.0,5.26,293.0,7.91,12.33,47.59359,-54.27349
2022-06-04 06:04:00+00:00,314.0,5.81,303.0,7.31,12.33,47.59359,-54.27349
2022-06-04 06:14:01+00:00,313.0,6.4,320.0,7.39,12.33,47.59359,-54.27349
2022-06-04 06:24:01+00:00,322.0,6.34,324.0,7.27,12.33,47.59359,-54.27349
2022-06-04 06:34:01+00:00,303.0,5.33,293.0,5.96,12.33,47.59359,-54.27349
2022-06-04 06:44:01+00:00,308.0,4.52,307.0,5.41,12.33,47.59359,-54.27349
2022-06-04 06:54:01+00:00,310.0,4.46,310.0,5.07,12.33,47.59359,-54.27349
2022-06-04 07:04:01+00:00,304.0,5.54,300.0,7.07,12.33,47.59359,-54.27349
2022-06-04 07:14:01+00:00,294.0,5.28,290.0,6.63,12.33,47.59359,-54.27349
2022-06-04 07:24:01+00:00,290.0,4.08,290.0,4.79,12.33,47.59359,-54.27349
2022-06-04 07:34:01+00:00,271.0,3.83,271.0,5.0,12.33,47.59359,-54.27349
2022-06-04 07:44:01+00:00,264.0,4.81,266.0,5.31,12.33,47.59359,-54.27349
2022-06-04 07:54:01+00:00,264.0,5.15,264.0,6.37,12.33,47.59359,-54.27349
2022-06-04 08:04:01+00:00,267.0,5.62,276.0,6.86,12.33,47.59359,-54.27349
2022-06-04 08:14:00+00:00,281.0,5.07,283.0,7.07,12.25,47.59359,-54.27349
2022-06-04 08:24:00+00:00,266.0,6.64,267.0,7.27,12.25,47.59359,-54.27349
2022-06-04 08:34:00+00:00,270.0,6.56,272.0,7.32,12.25,47.59359,-54.27349
2022-06-04 08:44:00+00:00,254.0,6.33,252.0,7.18,12.25,47.59359,-54.27349
2022-06-04 08:54:00+00:00,253.0,6.3,250.0,7.35,12.25,47.59359,-54.27349
2022-06-04 09:04:00+00:00,246.0,4.5,246.0,5.55,12.25,47.59359,-54.27349
2022-06-04 09:14:00+00:00,256.0,4.44,257.0,5.14,12.33,47.59359,-54.27349
2022-06-04 09:24:00+00:00,265.0,4.23,267.0,4.98,12.33,47.59359,-54.27349
2022-06-04 09:34:00+00:00,278.0,3.72,277.0,4.22,12.33,47.59359,-54.27349
2022-06-04 09:44:00+00:00,291.0,5.06,288.0,6.64,12.33,47.59359,-54.27349
2022-06-04 09:54:00+00:00,295.0,6.25,291.0,7.27,12.33,47.59359,-54.27349
2022-06-04 10:04:00+00:00,295.0,6.78,296.0,6.8,12.33,47.59359,-54.27349
2022-06-04 10:14:01+00:00,300.0,5.34,294.0,7.2,12.73,47.59359,-54.27349
2022-06-04 10:24:01+00:00,305.0,4.55,294.0,6.51,12.73,47.59359,-54.27349
2022-06-04 10:34:01+00:00,292.0,5.66,290.0,6.69,12.73,47.59359,-54.27349
2022-06-04 10:44:01+00:00,291.0,5.15,286.0,6.65,12.73,47.59359,-54.27349
2022-06-04 10:54:01+00:00,303.0,4.45,297.0,6.34,12.73,47.59359,-54.27349
2022-06-04 11:04:01+00:00,320.0,4.88,307.0,6.16,12.73,47.59359,-54.27349
2022-06-04 11:14:00+00:00,301.0,7.63,299.0,9.06,13.44,47.59359,-54.27349
2022-06-04 11:24:00+00:00,315.0,0.01,309.0,0.0,13.44,47.59359,-54.27349
2022-06-04 11:34:00+00:00,328.0,4.25,328.0,4.64,13.44,47.59359,-54.27349
2022-06-04 11:44:00+00:00,315.0,0.01,331.0,0.0,13.44,47.59359,-54.27349
2022-06-04 11:54:00+00:00,315.0,0.01,310.0,0.0,13.44,47.59359,-54.27349
2022-06-04 12:04:00+00:00,315.0,0.01,329.0,0.0,13.44,47.59359,-54.27349
2022-06-04 12:14:00+00:00,334.0,5.64,338.0,6.21,13.29,47.59359,-54.27349
2022-06-04 12:24:00+00:00,322.0,4.78,324.0,5.28,13.29,47.59359,-54.27349
2022-06-04 12:34:00+00:00,327.0,5.55,329.0,5.79,13.29,47.59359,-54.27349
2022-06-04 12:44:00+00:00,328.0,5.71,331.0,5.91,13.29,47.59359,-54.27349
2022-06-04 12:54:00+00:00,326.0,3.92,332.0,4.74,13.29,47.59359,-54.27349
2022-06-04 13:04:00+00:00,340.0,6.93,340.0,6.95,13.29,47.59359,-54.27349
2022-06-04 13:14:00+00:00,326.0,5.36,326.0,5.57,13.6,47.59359,-54.27349
2022-06-04 13:24:00+00:00,334.0,5.31,335.0,5.7,13.6,47.59359,-54.27349
2022-06-04 13:34:00+00:00,315.0,0.01,333.0,0.0,13.6,47.59359,-54.27349
2022-06-04 13:44:00+00:00,315.0,0.01,318.0,0.0,13.6,47.59359,-54.27349
2022-06-04 13:54:00+00:00,315.0,0.01,299.0,0.0,13.6,47.59359,-54.27349
2022-06-04 14:04:00+00:00,315.0,0.01,305.0,0.0,13.6,47.59359,-54.27349
2022-06-04 14:14:00+00:00,315.0,0.01,291.0,0.0,13.44,47.59359,-54.27349
2022-06-04 14:24:00+00:00,315.0,0.01,329.0,0.0,13.44,47.59359,-54.27349
2022-06-04 14:34:00+00:00,315.0,0.01,327.0,0.0,13.44,47.59359,-54.27349
2022-06-04 14:44:00+00:00,289.0,6.09,292.0,6.46,13.44,47.59359,-54.27349
2022-06-04 14:54:00+00:00,266.0,5.06,266.0,5.07,13.44,47.59359,-54.27349
2022-06-04 15:04:00+00:00,315.0,0.01,266.0,0.0,13.44,47.59359,-54.27349
2022-06-04 15:14:01+00:00,315.0,0.01,266.0,0.0,13.6,47.59359,-54.27349
2022-06-04 15:24:01+00:00,315.0,0.01,266.0,0.0,13.6,47.59359,-54.27349
2022-06-04 15:34:01+00:00,315.0,0.01,289.0,0.0,13.6,47.59359,-54.27349
2022-06-04 15:44:01+00:00,320.0,2.8,317.0,3.07,13.6,47.59359,-54.27349
2022-06-04 15:54:01+00:00,315.0,0.01,323.0,0.0,13.6,47.59359,-54.27349
2022-06-04 16:04:01+00:00,280.0,7.27,281.0,8.96,13.6,47.59359,-54.27349
2022-06-04 17:14:01+00:00,277.0,7.05,277.0,7.92,13.6,47.59359,-54.27349
2022-06-04 17:24:01+00:00,272.0,5.45,273.0,5.68,13.6,47.59359,-54.27349
2022-06-04 17:34:01+00:00,269.0,6.08,270.0,8.22,13.6,47.59359,-54.27349
2022-06-04 17:44:01+00:00,269.0,6.14,272.0,9.82,13.6,47.59359,-54.27349
2022-06-04 17:54:01+00:00,263.0,5.03,263.0,5.26,13.6,47.59359,-54.27349
2022-06-04 18:04:01+00:00,274.0,7.24,272.0,9.73,13.6,47.59359,-54.27349
2022-06-04 19:14:00+00:00,301.0,5.21,302.0,5.22,13.53,47.59359,-54.27349
2022-06-04 19:24:00+00:00,302.0,4.56,303.0,4.69,13.53,47.59359,-54.27349
2022-06-04 19:34:00+00:00,297.0,6.5,292.0,9.64,13.53,47.59359,-54.27349
2022-06-04 19:44:00+00:00,292.0,5.21,282.0,9.61,13.53,47.59359,-54.27349
2022-06-04 19:54:00+00:00,349.0,5.32,334.0,6.67,13.53,47.59359,-54.27349
2022-06-04 20:04:00+00:00,6.0,2.98,6.0,3.54,13.53,47.59359,-54.27349
2022-06-04 20:14:00+00:00,4.0,3.75,24.0,4.52,13.53,47.59359,-54.27349
2022-06-04 20:24:00+00:00,20.0,3.82,19.0,4.42,13.53,47.59359,-54.27349
2022-06-04 20:34:00+00:00,12.0,4.41,18.0,5.9,13.53,47.59359,-54.27349
2022-06-04 20:44:00+00:00,10.0,6.75,8.0,8.45,13.53,47.59359,-54.27349
2022-06-04 20:54:00+00:00,12.0,7.06,13.0,8.04,13.53,47.59359,-54.27349
2022-06-04 21:04:00+00:00,14.0,5.67,13.0,6.16,13.53,47.59359,-54.27349
2022-06-04 21:14:01+00:00,19.0,4.33,19.0,5.41,13.37,47.59359,-54.27349
2022-06-04 21:24:01+00:00,14.0,6.92,15.0,7.47,13.37,47.59359,-54.27349
2022-06-04 21:34:01+00:00,11.0,6.07,10.0,7.35,13.37,47.59359,-54.27349
2022-06-04 21:44:01+00:00,15.0,5.73,16.0,6.42,13.37,47.59359,-54.27349
2022-06-04 21:54:01+00:00,10.0,6.04,11.0,7.32,13.37,47.59359,-54.27349
2022-06-04 22:04:01+00:00,19.0,6.3,20.0,6.96,13.37,47.59359,-54.27349
2022-06-04 22:14:00+00:00,7.0,7.25,6.0,8.04,13.44,47.59359,-54.27349
2022-06-04 22:24:00+00:00,3.0,5.05,3.0,5.76,13.44,47.59359,-54.27349
2022-06-04 22:34:00+00:00,3.0,5.27,5.0,5.99,13.44,47.59359,-54.27349
2022-06-04 22:44:00+00:00,13.0,5.58,9.0,6.31,13.44,47.59359,-54.27349
2022-06-04 22:54:00+00:00,8.0,5.31,7.0,5.98,13.44,47.59359,-54.27349
2022-06-04 23:04:00+00:00,8.0,5.64,6.0,6.58,13.44,47.59359,-54.27349
2022-06-04 23:14:01+00:00,22.0,4.98,22.0,5.29,13.13,47.59359,-54.27349
2022-06-04 23:24:01+00:00,15.0,4.84,16.0,5.26,13.13,47.59359,-54.27349
2022-06-04 23:34:01+00:00,10.0,4.46,8.0,5.19,13.13,47.59359,-54.27349
2022-06-04 23:44:01+00:00,359.0,3.59,357.0,3.83,13.13,47.59359,-54.27349
2022-06-04 23:54:01+00:00,10.0,3.72,9.0,4.34,13.13,47.59359,-54.27349
